Location: Detroit
(42.3310°N, 83.0460°W)
Time: 11:09:20
(UTC-05:00)

Tiangong - Visible Passes

Search period start: 03 December 2022 00:00
Search period end: 13 December 2022 00:00
Orbit: 386 x 394 km, 41.5° (Epoch: 02 December)

Date Brightness Start Highest point End Pass type
(mag) Time Alt. Az. Time Alt. Az. Time Alt. Az.
03 Dec -2.1 18:32:00 10° WSW 18:35:11 69° S 18:35:49 50° ESE visible
04 Dec -1.6 17:34:04 10° WSW 17:37:11 55° SSE 17:40:19 10° E visible
04 Dec -0.5 19:10:52 10° W 19:12:52 35° W 19:12:52 35° W visible
05 Dec -2.1 18:12:48 10° W 18:15:59 78° S 18:17:35 27° E visible
05 Dec 1.5 19:49:44 10° W 19:49:53 11° W 19:49:53 11° W visible
06 Dec -1.8 18:51:36 10° W 18:54:36 62° SSW 18:54:36 62° SSW visible
07 Dec -2.0 17:53:26 10° W 17:56:37 75° S 17:59:21 13° E visible
07 Dec 0.7 19:30:28 10° W 19:31:40 19° WSW 19:31:40 19° WSW visible
08 Dec -1.3 18:32:11 10° W 18:35:15 46° SSW 18:36:28 29° SE visible
09 Dec -1.7 17:33:55 10° W 17:37:04 61° S 17:40:13 10° ESE visible
09 Dec 0.2 19:11:12 10° WSW 19:13:40 20° SSW 19:13:42 20° SSW visible
10 Dec -0.4 18:12:40 10° W 18:15:31 30° SSW 18:18:22 10° SE visible
11 Dec 0.9 18:52:21 10° WSW 18:53:42 12° SSW 18:55:03 10° S visible
12 Dec 0.6 17:53:11 10° WSW 17:55:31 19° SSW 17:57:53 10° SSE visible
